Weather History for KCCY - April, 2013

Change the Weather History Date:

Thursday, April 25, 2013

  Actual Average Record
Temperature  
Mean Temperature 42 °F -  
Max Temperature 53 °F 66 °F 89 °F (1949)
Min Temperature 30 °F 40 °F 30 °F (1958)
Degree Days  
Heating Degree Days 24    
Moisture  
Dew Point 27 °F    
Average Humidity 60    
Maximum Humidity 93    
Minimum Humidity 28    
Precipitation  
Precipitation 0.00 in - - ()
Sea Level Pressure  
Sea Level Pressure 30.17 in    
Wind  
Wind Speed 12 mph (West)    
Max Wind Speed 21 mph    
Max Gust Speed 28 mph    
Visibility 10 miles    
Events      
Averages and records for this station are not official NWS values.
T = Trace of Precipitation, MM = Missing Value Source: NWS Daily Summary

Daily Weather History Graph

Daily Weather History Graph

Search for Another Location

Airport or City:

Trip Planner

Search our weather history database for the weather conditions in past years. The results will help you decide how hot, cold, wet, or windy it might be!

Date:

Astronomy

Apr. 25, 2013 Rise Set
Actual Time 6:12 AM CDT 8:05 PM CDT
Civil Twilight 5:41 AM CDT 8:35 PM CDT
Nautical Twilight 5:04 AM CDT 9:12 PM CDT
Astronomical Twilight 4:24 AM CDT 9:53 PM CDT
Moon 8:19 PM CDT (4/25) 5:55 AM CDT (4/25)
Length of Visible Light 14h 53m
Length of Day
13h 52m
Full, 100% of the Moon is Illuminated
Apr 25
Full
Apr 25
Full
May 2
Last Quarter
May 9
New
May 17
First Quarter

Hourly Weather History & Observations

Time (CDT) Temp. Windchill Dew Point Humidity Pressure Visibility Wind Dir Wind Speed Gust Speed Precip Events Conditions
12:15 AM 35.6 °F 29.2 °F 33.8 °F 93% 30.05 in 10.0 mi West 8.1 mph - N/A   Overcast
12:35 AM 35.6 °F 28.6 °F 33.8 °F 93% 30.05 in 10.0 mi West 9.2 mph - N/A   Overcast
12:55 AM 37.4 °F 29.8 °F 33.8 °F 87% 30.05 in 10.0 mi West 11.5 mph 18.4 mph N/A   Overcast
1:15 AM 37.4 °F 28.9 °F 32.0 °F 81% 30.06 in 10.0 mi WNW 13.8 mph 21.9 mph N/A   Mostly Cloudy
1:35 AM 35.6 °F 25.5 °F 28.4 °F 75% 30.07 in 10.0 mi West 17.3 mph 25.3 mph N/A   Mostly Cloudy
1:55 AM 33.8 °F 22.2 °F 28.4 °F 81% 30.07 in 10.0 mi WNW 20.7 mph 27.6 mph N/A   Clear
2:15 AM 33.8 °F 23.9 °F 28.4 °F 81% 30.07 in 10.0 mi WNW 15.0 mph 24.2 mph N/A   Partly Cloudy
2:35 AM 32.0 °F 20.5 °F 28.4 °F 87% 30.08 in 10.0 mi WNW 18.4 mph - N/A   Clear
2:55 AM 32.0 °F 22.1 °F 28.4 °F 87% 30.09 in 10.0 mi WNW 13.8 mph 24.2 mph N/A   Clear
3:15 AM 32.0 °F 21.6 °F 26.6 °F 80% 30.09 in 10.0 mi WNW 15.0 mph 20.7 mph N/A   Clear
3:35 AM 32.0 °F 22.5 °F 28.4 °F 87% 30.09 in 10.0 mi WNW 12.7 mph - N/A   Clear
3:55 AM 32.0 °F 22.1 °F 26.6 °F 80% 30.10 in 10.0 mi West 13.8 mph - N/A   Clear
4:15 AM 32.0 °F 21.6 °F 24.8 °F 75% 30.10 in 10.0 mi West 15.0 mph 20.7 mph N/A   Clear
4:35 AM 32.0 °F 20.1 °F 24.8 °F 75% 30.11 in 10.0 mi WNW 19.6 mph - N/A   Clear
4:55 AM 32.0 °F 21.2 °F 23.0 °F 69% 30.12 in 10.0 mi WNW 16.1 mph - N/A   Clear
5:15 AM 30.2 °F 20.2 °F 23.0 °F 75% 30.13 in 10.0 mi WNW 12.7 mph - N/A   Clear
5:35 AM 30.2 °F 20.2 °F 23.0 °F 75% 30.14 in 10.0 mi West 12.7 mph - N/A   Clear
5:55 AM 30.2 °F 20.2 °F 23.0 °F 75% 30.14 in 10.0 mi West 12.7 mph - N/A   Clear
6:15 AM 30.2 °F 19.8 °F 23.0 °F 75% 30.15 in 10.0 mi WNW 13.8 mph - N/A   Clear
6:35 AM 30.2 °F 20.2 °F 23.0 °F 75% 30.15 in 10.0 mi WNW 12.7 mph - N/A   Clear
6:55 AM 30.2 °F 20.2 °F 23.0 °F 75% 30.17 in 10.0 mi WNW 12.7 mph - N/A   Clear
7:15 AM 30.2 °F 20.2 °F 23.0 °F 75% 30.18 in 10.0 mi WNW 12.7 mph 19.6 mph N/A   Clear
7:35 AM 30.2 °F 19.3 °F 23.0 °F 75% 30.19 in 10.0 mi WNW 15.0 mph - N/A   Clear
7:55 AM 32.0 °F 21.2 °F 23.0 °F 69% 30.20 in 10.0 mi West 16.1 mph - N/A   Clear
8:15 AM 32.0 °F 21.6 °F 23.0 °F 69% 30.21 in 10.0 mi West 15.0 mph 20.7 mph N/A   Clear
8:35 AM 32.0 °F 21.6 °F 24.8 °F 75% 30.22 in 10.0 mi WNW 15.0 mph 23.0 mph N/A   Clear
8:55 AM 33.8 °F 23.9 °F 24.8 °F 70% 30.23 in 10.0 mi WNW 15.0 mph - N/A   Clear
9:15 AM 33.8 °F 24.8 °F 24.8 °F 70% 30.23 in 10.0 mi WNW 12.7 mph 19.6 mph N/A   Clear
9:35 AM 33.8 °F 23.5 °F 26.6 °F 75% 30.23 in 10.0 mi WNW 16.1 mph - N/A   Clear
9:55 AM 35.6 °F 26.2 °F 26.6 °F 70% 30.24 in 10.0 mi WNW 15.0 mph - N/A   Clear
10:15 AM 37.4 °F 29.8 °F 26.6 °F 65% 30.24 in 10.0 mi WNW 11.5 mph 18.4 mph N/A   Clear
10:35 AM 37.4 °F 29.3 °F 26.6 °F 65% 30.24 in 10.0 mi WNW 12.7 mph 20.7 mph N/A   Clear
10:55 AM 37.4 °F 30.3 °F 26.6 °F 65% 30.24 in 10.0 mi NW 10.4 mph 17.3 mph N/A   Clear
11:35 AM 39.2 °F 31.6 °F 26.6 °F 61% 30.25 in 10.0 mi West 12.7 mph - N/A   Clear
11:55 AM 41.0 °F 35.2 °F 28.4 °F 61% 30.26 in 10.0 mi WNW 9.2 mph - N/A   Clear
12:15 PM 42.8 °F 37.5 °F 26.6 °F 53% 30.25 in 10.0 mi West 9.2 mph 17.3 mph N/A   Clear
12:35 PM 42.8 °F 39.3 °F 26.6 °F 53% 30.25 in 10.0 mi WNW 5.8 mph 15.0 mph N/A   Clear
12:55 PM 44.6 °F 38.8 °F 26.6 °F 49% 30.24 in 10.0 mi West 11.5 mph 19.6 mph N/A   Clear
1:15 PM 44.6 °F 38.8 °F 24.8 °F 46% 30.24 in 10.0 mi WSW 11.5 mph - N/A   Clear
1:35 PM 46.4 °F 41.9 °F 24.8 °F 43% 30.23 in 10.0 mi WSW 9.2 mph - N/A   Clear
1:55 PM 46.4 °F 41.5 °F 23.0 °F 40% 30.23 in 10.0 mi West 10.4 mph - N/A   Clear
2:15 PM 48.2 °F - 23.0 °F 37% 30.23 in 10.0 mi WSW 10.4 mph - N/A   Clear
2:35 PM 48.2 °F - 19.4 °F 32% 30.23 in 10.0 mi Variable 6.9 mph - N/A   Clear
2:55 PM 50.0 °F - 19.4 °F 30% 30.22 in 10.0 mi West 12.7 mph - N/A   Clear
3:15 PM 50.0 °F - 19.4 °F 30% 30.21 in 10.0 mi West 11.5 mph - N/A   Clear
3:35 PM 50.0 °F - 17.6 °F 28% 30.21 in 10.0 mi SW 8.1 mph - N/A   Clear
3:55 PM 51.8 °F - 23.0 °F 33% 30.21 in 10.0 mi WSW 16.1 mph - N/A   Clear
4:15 PM 51.8 °F - 24.8 °F 35% 30.21 in 10.0 mi West 12.7 mph - N/A   Clear
4:35 PM 51.8 °F - 26.6 °F 38% 30.20 in 10.0 mi WSW 9.2 mph - N/A   Clear
4:55 PM 51.8 °F - 24.8 °F 35% 30.19 in 10.0 mi West 8.1 mph - N/A   Clear
5:15 PM 53.6 °F - 28.4 °F 38% 30.19 in 10.0 mi WNW 6.9 mph - N/A   Clear
5:35 PM 51.8 °F - 24.8 °F 35% 30.18 in 10.0 mi Variable 5.8 mph 11.5 mph N/A   Clear
5:55 PM 51.8 °F - 26.6 °F 38% 30.17 in 10.0 mi South 10.4 mph 17.3 mph N/A   Clear
6:15 PM 53.6 °F - 26.6 °F 35% 30.17 in 10.0 mi SSW 6.9 mph - N/A   Clear
6:35 PM 53.6 °F - 26.6 °F 35% 30.17 in 10.0 mi South 8.1 mph - N/A   Clear
6:55 PM 53.6 °F - 28.4 °F 38% 30.16 in 10.0 mi South 8.1 mph - N/A   Clear
7:15 PM 53.6 °F - 30.2 °F 41% 30.16 in 10.0 mi South 11.5 mph - N/A   Clear
7:35 PM 51.8 °F - 32.0 °F 47% 30.16 in 10.0 mi South 9.2 mph - N/A   Clear
7:55 PM 50.0 °F - 30.2 °F 47% 30.16 in 10.0 mi SSE 9.2 mph - N/A   Clear
8:15 PM 48.2 °F - 32.0 °F 54% 30.16 in 10.0 mi SSE 6.9 mph - N/A   Clear
8:35 PM 46.4 °F 42.9 °F 32.0 °F 57% 30.16 in 10.0 mi SE 6.9 mph - N/A   Clear
8:55 PM 46.4 °F 42.4 °F 32.0 °F 57% 30.16 in 10.0 mi SE 8.1 mph - N/A   Clear
9:15 PM 46.4 °F 41.9 °F 30.2 °F 53% 30.17 in - SE 9.2 mph - N/A   Clear
9:35 PM 46.4 °F 41.9 °F 30.2 °F 53% 30.17 in 10.0 mi SE 9.2 mph - N/A   Clear
9:55 PM 46.4 °F 41.5 °F 32.0 °F 57% 30.17 in 10.0 mi SE 10.4 mph - N/A   Clear
10:15 PM 46.4 °F 40.7 °F 30.2 °F 53% 30.17 in 10.0 mi SE 12.7 mph - N/A   Clear
10:35 PM 44.6 °F 38.4 °F 32.0 °F 61% 30.16 in 10.0 mi SE 12.7 mph - N/A   Clear
10:55 PM 44.6 °F 38.1 °F 30.2 °F 57% 30.16 in 10.0 mi SE 13.8 mph - N/A   Clear
11:15 PM 44.6 °F 38.1 °F 32.0 °F 61% 30.15 in 10.0 mi SE 13.8 mph - N/A   Clear
11:35 PM 44.6 °F 37.8 °F 32.0 °F 61% 30.15 in 10.0 mi SE 15.0 mph - N/A   Clear
11:55 PM 44.6 °F 37.4 °F 32.0 °F 61% 30.15 in 10.0 mi SSE 16.1 mph 21.9 mph N/A   Clear